[[{"header":{"parameterUnit":"m.s-1","parameterCategory":1,"la1":30.2991,"la2":30.254,"lo1":-89.0895,"lo2":-89.0444,"dy":0.0017,"dx":0.0017,"nx":28,"ny":28,"refTime":"2023-10-24T21:00:00:Z","depth":0,"parameterNumber":2,"parameterNumberName":"U-component_of_WINDS"},"data":[0,0,0,0,0,0,0,0,0,0,0,0,0,0,0,0,0,0,0,0,0,0,0,0,0,0,0,0,0,0,0,0,0,0,0,0,0,0,0,0,0,0,0,0,0,0,0,0,0,0,0,0,0,0,0,0,0,0,-6.8575,-6.8576,0,-6.863,-6.863,-6.8631,-6.8504,-6.85,-6.8496,-6.8492,-6.8545,-6.855,-6.8556,0,0,0,0,0,0,0,0,0,0,0,0,0,-6.836,-6.8365,-6.8575,-6.8576,-6.8576,-6.863,-6.863,-6.8631,-6.8505,-6.85,-6.8495,-6.849,-6.8544,-6.855,-6.8556,0,0,0,0,0,0,0,0,0,0,0,0,0,-6.8438,-6.8367,-6.8575,-6.852,-6.8515,-6.8629,-6.863,-6.8631,-6.8506,-6.85,-6.8494,-6.8488,-6.8542,-6.8549,-6.8557,-6.8726,0,0,-6.8581,-6.8584,0,0,0,0,0,0,0,0,-6.8434,-6.8446,-6.8527,-6.8524,-6.8519,-6.8554,-6.8574,-6.8663,-6.8507,-6.8509,-6.8492,-6.8485,-6.8553,-6.8559,-6.8583,-6.8728,-6.8731,-6.8581,-6.8586,-6.8589,-6.8592,0,0,0,0,0,0,0,-6.8429,-6.8443,-6.8596,-6.8529,-6.8524,-6.8492,-6.8496,-6.859,-6.8564,-6.8509,-6.85,-6.8508,-6.855,-6.8576,-6.8583,-6.8732,-6.8581,-6.8588,-6.8593,-6.8596,-6.902,-6.9026,0,0,0,0,0,0,-6.8431,-6.844,-6.8595,-6.8598,-6.8461,-6.8501,-6.8506,-6.8549,-6.8563,-6.8559,-6.8513,-6.8502,-6.8565,-6.8574,-6.8585,-6.8783,-6.8589,-6.8597,-6.8601,-6.9013,-6.9021,-6.9028,0,0,0,0,0,0,-6.8427,-6.8446,-6.8592,-6.8516,-6.8533,-6.8511,-6.856,-6.8553,-6.8579,-6.8566,-6.8561,-6.8545,-6.8561,-6.8574,-6.8692,-6.8783,-6.86,-6.8607,-6.9005,-6.9016,-6.9025,-6.9181,0,0,0,0,0,0,-6.8421,-6.8445,-6.8509,-6.8519,-6.8537,-6.87,-6.8566,-6.8558,-6.8593,-6.8579,-6.8594,-6.8591,-6.8557,-6.8681,-6.87,-6.879,-6.8613,-6.8997,-6.901,-6.9022,-6.9168,-6.9195,-6.9219,0,0,0,0,0,-6.8414,-6.855,-6.8513,-6.8532,-6.8617,-6.8705,-6.8715,-6.8674,-6.8601,-6.8665,-6.8657,-6.8591,-6.8771,-6.8694,-6.8714,-6.8808,-6.8991,-6.9006,-6.9021,-6.9156,-6.919,-6.9218,0,0,0,0,0,0,-6.8549,-6.855,-6.8509,-6.8652,-6.868,-6.8683,-6.8762,-6.8711,-6.8759,-6.8743,-6.869,-6.8695,-6.8823,-6.8828,-6.8743,-6.8973,-6.8868,-6.8888,-6.8965,-6.8996,-6.9022,-6.9016,-6.862,0,0,0,0,0,-6.8596,-6.8668,-6.8665,-6.8792,-6.8808,-6.8784,-6.8821,-6.8787,-6.8813,-6.8823,-6.8824,-6.8851,-6.8914,-6.8956,-6.9013,-6.917,-6.9171,-6.9244,-6.927,-6.9291,-6.9307,-6.939,-6.9423,-6.9077,-6.9077,-6.9077,0,0,-6.8692,-6.8702,-6.875,-6.882,-6.8837,-6.8912,-6.8794,-6.8878,-6.8934,-6.8836,-6.8947,-6.895,-6.8977,-6.9115,-6.9176,-6.9123,-6.9404,-6.931,-6.9327,-6.9331,-6.9409,-6.9442,-6.9471,-6.9087,-6.9085,-6.9084,0,0,-6.8906,-6.8922,-6.9029,-6.905,-6.9079,-6.9062,-6.9089,-6.9101,-6.9099,-6.9211,-6.914,-6.9205,-6.9315,-6.9337,-6.9362,-6.959,-6.9531,-6.9611,-6.9742,-6.9824,-6.9851,-6.9875,-6.9954,-6.9984,-6.9628,-6.9628,-6.9629,0,-6.9022,-6.9133,-6.909,-6.9181,-6.9213,-6.9131,-6.9239,-6.9262,-6.9307,-6.9331,-6.9272,-6.9409,-6.9421,-6.9564,-6.962,-6.9644,-6.9672,-6.9606,-6.9851,-6.9874,-6.9896,-6.9971,-7.0001,-6.9638,-6.9637,-6.9636,-6.9635,0,-6.9273,-6.9352,-6.9436,-6.9483,-6.9526,-6.9625,-6.9597,-6.9646,-6.961,-6.96,-6.9716,-6.9729,-6.9788,-6.982,-6.9785,-6.9958,-6.9924,-6.986,-6.9752,-6.9939,-7.0008,-7.0037,-6.9651,-6.9648,-6.9645,-6.9643,0,0,-6.9568,-6.9595,-6.9626,-6.9647,-6.9675,-6.9734,-6.9831,-6.989,-6.9932,-6.9968,-7.0046,-7.0143,-7.0084,-7.0113,-7.0081,-7.0154,-7.0332,-7.0079,-7.0079,-7.0124,-7.0522,-7.0569,-7.0603,-7.0295,-7.0301,-7.0305,-7.0519,0,-6.9778,-6.9943,-6.991,-7.0071,-7.0143,-7.0069,-7.0153,-7.018,-7.0174,-7.0235,-7.0229,-7.0297,-7.0215,-7.0232,-7.0301,-7.0296,-7.0411,-7.0281,-7.0366,-7.0369,-7.0357,-7.0639,-7.0688,-7.0889,-7.0547,-7.0551,-7.0555,0,-7.0043,-7.009,-7.026,-7.0278,-7.0307,-7.0383,-7.0435,-7.0495,-7.0524,-7.0515,-7.0551,-7.0506,-7.0602,-7.0498,-7.0628,-7.0541,-7.0574,-7.0578,-7.0585,-7.0588,-7.047,-7.0647,-7.0953,-7.0982,-7.0597,-7.0594,-7.0591,0,-7.0238,-7.0345,-7.046,-7.0481,-7.0506,-7.0561,-7.0574,-7.0597,-7.0636,-7.0682,-7.0706,-7.0763,-7.0794,-7.0839,-7.0811,-7.0738,-7.0947,-7.084,-7.0941,-7.0942,-7.0984,-7.0981,-7.1296,-7.1013,-7.1012,-7.1012,-7.1011,0,-7.0473,-7.0579,-7.0548,-7.0618,-7.0736,-7.0698,-7.0814,-7.0819,-7.0841,-7.0911,-7.0852,-7.0919,-7.088,-7.0944,-7.0923,-7.1034,-7.1049,-7.1044,-7.1036,-7.1047,-7.1048,-7.1065,-7.1049,-7.1019,-7.1018,-7.1016,-7.1015,0,-7.0708,-7.0692,-7.0812,-7.0828,-7.0834,-7.092,-7.0932,-7.0998,-7.0991,-7.1081,-7.1099,-7.1087,-7.116,-7.1138,-7.1217,-7.1203,-7.1343,-7.1319,-7.1333,-7.1326,-7.1427,-7.1416,-7.1761,-7.1804,-7.1496,-7.1499,-7.1502,0,-7.0857,-7.0937,-7.0962,-7.1005,-7.1023,-7.1094,-7.1133,-7.1101,-7.1144,-7.1186,-7.1247,-7.1315,-7.1367,-7.1487,-7.1485,-7.1545,-7.152,-7.1638,-7.1528,-7.1537,-7.1519,-7.1513,-7.152,-7.1657,-7.1661,-7.1664,-7.1666,0,-7.1122,-7.1111,-7.1171,-7.123,-7.1279,-7.1323,-7.1361,-7.14,-7.1371,-7.1423,-7.1498,-7.1539,-7.162,-7.1688,-7.1744,-7.1757,-7.1707,-7.1702,-7.1728,-7.1737,-7.1741,-7.1738,-7.1388,-7.1692,-7.169,-7.1688,-7.1687,-7.1685,-7.1316,-7.1384,-7.1413,-7.1482,-7.1509,-7.1547,-7.161,-7.1612,-7.1674,-7.1738,-7.1716,-7.1802,-7.1831,-7.1901,-7.1922,-7.1988,-7.1943,-7.1982,-7.199,-7.1999,-7.2011,-7.1735,-7.1999,-7.1998,-7.1997,-7.1997,-7.1996,0,-7.1576,-7.1592,-7.1657,-7.1714,-7.1769,-7.1721,-7.1762,-7.181,-7.1887,-7.192,-7.1973,-7.206,-7.2127,-7.2132,-7.2195,-7.2247,-7.2226,-7.2264,-7.2258,-7.2262,-7.2049,-7.2019,-7.2281,-7.2281,-7.2281,-7.228,-7.228,-7.228,-7.1717,-7.1829,-7.1823,-7.1949,-7.1964,-7.2048,-7.2076,-7.2111,-7.2137,-7.2237,-7.2293,-7.2297,-7.2319,-7.2383,-7.2443,-7.2443,-7.2467,-7.2514,-7.2505,-7.2305,-7.2277,-7.225,-7.2221,-7.2521,-7.2521,-7.2712,-7.2714,-7.2715]},{"header":{"parameterUnit":"m.s-1","parameterCategory":1,"la1":30.2991,"la2":30.254,"lo1":-89.0895,"lo2":-89.0444,"dy":0.0017,"dx":0.0017,"nx":28,"ny":28,"refTime":"2023-10-24T21:00:00:Z","depth":0,"parameterNumber":3,"parameterNumberName":"V-component_of_WINDS"},"data":[0,0,0,0,0,0,0,0,0,0,0,0,0,0,0,0,0,0,0,0,0,0,0,0,0,0,0,0,0,0,0,0,0,0,0,0,0,0,0,0,0,0,0,0,0,0,0,0,0,0,0,0,0,0,0,0,0,0,1.2263,1.2263,0,1.228,1.228,1.228,1.2286,1.2286,1.2286,1.2286,1.2301,1.2301,1.2302,0,0,0,0,0,0,0,0,0,0,0,0,0,1.2238,1.2238,1.2263,1.2264,1.2264,1.228,1.228,1.228,1.2286,1.2286,1.2286,1.2286,1.2301,1.2301,1.2302,0,0,0,0,0,0,0,0,0,0,0,0,0,1.2251,1.2238,1.2263,1.2269,1.2269,1.228,1.228,1.228,1.2286,1.2286,1.2286,1.2286,1.23,1.2301,1.2302,1.2307,0,0,1.2304,1.2304,0,0,0,0,0,0,0,0,1.225,1.2252,1.2268,1.2268,1.2269,1.2281,1.2276,1.2289,1.2286,1.228,1.2286,1.2286,1.2294,1.2295,1.2298,1.2308,1.2308,1.2304,1.2304,1.2304,1.2305,0,0,0,0,0,0,0,1.2249,1.2251,1.227,1.2268,1.2269,1.227,1.2272,1.2279,1.2287,1.228,1.2281,1.2283,1.2294,1.2298,1.2299,1.2309,1.2304,1.2304,1.2305,1.2305,1.2326,1.2326,0,0,0,0,0,0,1.2248,1.225,1.2269,1.227,1.2259,1.2271,1.2273,1.2277,1.2287,1.2288,1.2283,1.2283,1.2297,1.2298,1.2299,1.2308,1.2304,1.2305,1.2305,1.2326,1.2326,1.2326,0,0,0,0,0,0,1.2247,1.2249,1.2269,1.226,1.2263,1.2272,1.2276,1.2277,1.2281,1.2289,1.229,1.2285,1.2297,1.2298,1.2306,1.2308,1.2305,1.2306,1.2326,1.2326,1.2326,1.2324,0,0,0,0,0,0,1.2246,1.2249,1.2251,1.226,1.2263,1.2275,1.2276,1.2278,1.2282,1.2282,1.2291,1.2292,1.2297,1.2305,1.2306,1.2309,1.2306,1.2325,1.2326,1.2326,1.2324,1.2324,1.2324,0,0,0,0,0,1.2245,1.2248,1.2251,1.2253,1.2266,1.2275,1.2276,1.2282,1.2282,1.2284,1.229,1.2292,1.2308,1.2305,1.2307,1.231,1.2325,1.2326,1.2326,1.2323,1.2324,1.2324,0,0,0,0,0,0,1.2237,1.225,1.2252,1.2259,1.2266,1.2276,1.2278,1.2282,1.2288,1.2288,1.2294,1.2296,1.2304,1.2308,1.2305,1.2317,1.2317,1.2318,1.2314,1.2315,1.2315,1.2314,1.2307,0,0,0,0,0,1.2236,1.2243,1.2253,1.2258,1.2261,1.227,1.2273,1.2278,1.2285,1.2287,1.2293,1.23,1.2307,1.2311,1.2318,1.2325,1.2327,1.2328,1.2328,1.2328,1.2329,1.2335,1.2336,1.2327,1.2327,1.2327,0,0,1.2234,1.2242,1.2245,1.2256,1.2262,1.2269,1.2272,1.2278,1.2283,1.2288,1.2296,1.2301,1.2309,1.2317,1.2321,1.2321,1.2332,1.2329,1.2329,1.2329,1.2335,1.2336,1.2337,1.2328,1.2328,1.2328,0,0,1.2234,1.224,1.2245,1.2252,1.2262,1.2268,1.2269,1.2279,1.2283,1.2292,1.2296,1.2303,1.2314,1.232,1.2324,1.233,1.2333,1.2332,1.2333,1.2339,1.234,1.234,1.2343,1.2344,1.2333,1.2333,1.2333,0,1.2229,1.224,1.2248,1.2255,1.226,1.2267,1.2273,1.2279,1.229,1.2294,1.2294,1.231,1.2315,1.2326,1.2328,1.2331,1.2333,1.2331,1.2339,1.234,1.234,1.2343,1.2344,1.2333,1.2333,1.2333,1.2333,0,1.2235,1.2243,1.2246,1.2258,1.2264,1.227,1.228,1.2285,1.2289,1.2296,1.2305,1.2313,1.2322,1.2325,1.2328,1.2337,1.2337,1.2338,1.2337,1.2341,1.2344,1.2345,1.2333,1.2333,1.2333,1.2333,0,0,1.2228,1.2246,1.2247,1.2254,1.2267,1.2273,1.2281,1.2291,1.2296,1.2304,1.2311,1.2322,1.2324,1.2329,1.2334,1.2339,1.2345,1.234,1.234,1.2341,1.2356,1.2355,1.2356,1.2347,1.2348,1.2348,1.2356,0,1.2229,1.2244,1.2252,1.2263,1.2271,1.2279,1.2286,1.2295,1.2302,1.231,1.2317,1.2325,1.2326,1.233,1.2336,1.2343,1.2348,1.2343,1.2354,1.2355,1.2352,1.2358,1.2356,1.2363,1.2357,1.2357,1.2357,0,1.2232,1.2242,1.2254,1.2269,1.2272,1.2278,1.229,1.2297,1.2308,1.2313,1.2321,1.2326,1.2335,1.2335,1.2349,1.2345,1.2351,1.2355,1.2356,1.2357,1.2356,1.2359,1.2366,1.2367,1.2359,1.2359,1.2359,0,1.2227,1.2243,1.2253,1.2259,1.2275,1.228,1.2287,1.2298,1.2304,1.2315,1.2319,1.233,1.2336,1.2344,1.2353,1.2352,1.2366,1.2366,1.237,1.237,1.2372,1.2372,1.238,1.2376,1.2376,1.2376,1.2376,0,1.2228,1.2235,1.2251,1.2257,1.2267,1.2277,1.2286,1.2293,1.2304,1.2312,1.232,1.2327,1.2338,1.2347,1.2354,1.2365,1.2368,1.2372,1.2374,1.2371,1.2371,1.2375,1.2374,1.2376,1.2376,1.2376,1.2376,0,1.2222,1.2233,1.2245,1.2261,1.2265,1.2272,1.2285,1.2292,1.23,1.2311,1.2314,1.2327,1.2338,1.2348,1.2363,1.2368,1.2379,1.2381,1.2376,1.2377,1.2381,1.2381,1.2391,1.2394,1.2388,1.2388,1.2388,0,1.2222,1.2228,1.2246,1.2252,1.226,1.227,1.2278,1.2289,1.2296,1.2311,1.2316,1.2329,1.2339,1.2358,1.2368,1.238,1.2383,1.2386,1.2384,1.2382,1.2383,1.2383,1.2384,1.2385,1.2385,1.2385,1.2385,0,1.222,1.2227,1.2237,1.2251,1.226,1.2271,1.2282,1.2287,1.23,1.2309,1.2321,1.233,1.2346,1.2359,1.2373,1.238,1.2385,1.2386,1.2388,1.2385,1.2382,1.2385,1.2376,1.2386,1.2386,1.2386,1.2386,1.2386,1.2218,1.2225,1.2239,1.2251,1.2261,1.2272,1.228,1.2291,1.2302,1.2317,1.2323,1.2336,1.2349,1.2369,1.2377,1.2388,1.2388,1.239,1.2391,1.2392,1.2392,1.2381,1.239,1.239,1.239,1.239,1.239,0,1.2217,1.2228,1.2239,1.2256,1.2266,1.2272,1.2285,1.2293,1.2305,1.2317,1.2329,1.2344,1.2357,1.237,1.2384,1.2391,1.2394,1.2394,1.2393,1.2395,1.239,1.2387,1.2391,1.2391,1.2391,1.2391,1.2391,1.2391,1.2218,1.2231,1.2239,1.2257,1.2267,1.2281,1.2289,1.2299,1.231,1.2327,1.2339,1.2348,1.2361,1.2376,1.2389,1.2392,1.2397,1.2397,1.2401,1.2396,1.2395,1.2395,1.2393,1.2398,1.2398,1.2406,1.2406,1.2406]}]]